Meath Environmental Platform

Observations for Trim Market St

Time AQI Temp °C Hum % Pres Pa CO μg/m³ H₂S μg/m³ NO μg/m³ NO₂ μg/m³ O₃ μg/m³ SO₂ μg/m³ PM1 μg/m³ PM2.5 μg/m³ PM10 μg/m³
Wednesday 26 August 2026
14:48 2 28 54 55,544 0.15 0 2.27 9.68 53.24 0 7.84 10.4 14.73
14:47 2 28 54 55,530 0.11 0 2.3 12.02 47.57 0 7.13 8.88 11.85
14:45 2 28.1 55 55,523 0.19 0 2.36 10.27 47.91 0 5.7 8.35 11.12
14:43 2 28.2 55 55,697 0.24 0 2.47 11.47 45.02 0 4.99 9.34 13.97
14:42 2 28.2 55 55,721 0.28 0 2.53 13.62 38.63 0 6.41 9.32 12.53
14:37 2 28.1 57 56,511 0.49 0 2.83 15.14 34.07 0 6.41 9.71 13.86
14:30 2 27 61 56,995 0.2 0 2.25 21.38 74.46 0 7.84 10.93 14.99
14:29 2 26.7 62 56,938 0.17 0 2.26 16.31 40.66 0 7.13 9.43 14.97
14:28 2 26.4 62 56,898 0.17 0 2.45 16.57 42.22 0 7.13 8.9 12.25
14:27 2 26.1 62 56,867 0.13 0 2.22 15.76 40.73 0 9.26 13.36 18.3
14:26 2 25.9 62 56,804 0.11 0 2.14 15.49 45.25 0 7.84 10.86 14.92
14:25 2 25.7 62 56,758 0.1 0 2.28 12.04 45.48 0 10.69 15.33 23.64
14:23 2 25.4 63 56,682 0.13 0 2.57 15.07 39.87 0 6.41 10.84 18.24
14:22 2 25.3 63 56,670 0.14 0 2.48 13.04 44.17 0 9.26 12.82 18.23
14:21 2 25.3 63 56,661 0.18 0 2.74 12.06 38.68 0 8.55 11.82 16.89
14:19 2 25.1 63 56,577 0.15 0 2.56 11.55 42.73 0 9.26 12.29 18.86
14:15 2 25.1 64 56,433 0.21 0 2.85 8.85 41.94 0 9.26 12.73 18.13
14:14 2 25.1 64 56,284 0.22 0 3.01 9.57 42.12 0 8.55 11.22 17.43
14:12 2 25 65 55,866 0.23 0 2.95 11.81 40.29 0 7.84 9.2 13.43
14:09 2 24.8 66 55,133 0.27 0 3.21 15.06 37.39 0 7.84 11.11 15.99